New Jersey Responder — WBO8578 — position and weather

sailwx.info

Track history (hours):
 
Tides and Currents Weather Stations Pressure Air Temp Water Temp Dewpoint Dewpoint Depression Visibility Wind Speed Wind Dir Waves Ship Positions

New Jersey Responder

Owner: MARINE SPILL RESPONSE CORP, HERNDON, VA. More information available from US FCC via Universal Licensing System and Coast Guard Vessel Documentation Center.

Last reported at 2016-Jul-27 14:33 UTC. Time now 2016-Jul-27 15:19 UTC.
Position N 40°46' W 074°00'.

; draft 4 m.

Type: Pollution control. MMSI: 366594000.

Date/timePositionNaut miles runAvg speedWind from/ knotsBaromVisibWave heightAir tempDewpointWater temp
2016-Jul-27 14:33N 40°46' W 074°00'9 8.5
2016-Jul-27 13:33N 40°39' W 074°06'  
2016-Jul-25 06:16N 40°32' W 074°15'0 0.0
2016-Jul-25 05:25N 40°32' W 074°15'  
2016-Jul-20 16:06N 40°30' W 074°08'3 5.2
2016-Jul-20 15:33N 40°30' W 074°05'1 0.6
2016-Jul-20 14:32N 40°30' W 074°05'1 1.0
2016-Jul-20 13:33N 40°30' W 074°07'7 0.1
2016-Jul-18 12:32N 40°32' W 074°15'  
Track history (hours):
 
Tides and Currents Weather Stations Pressure Air Temp Water Temp Dewpoint Dewpoint Depression Visibility Wind Speed Wind Dir Waves Ship Positions

New Jersey Responder

Owner: MARINE SPILL RESPONSE CORP, HERNDON, VA. More information available from US FCC via Universal Licensing System and Coast Guard Vessel Documentation Center.

Last reported at 2016-Jul-27 14:33 UTC. Time now 2016-Jul-27 15:19 UTC.
Position N 40°46' W 074°00'.

; draft 4 m.

Type: Pollution control. MMSI: 366594000.

Date/timePositionNaut miles runAvg speedWind from/ knotsBaromVisibWave heightAir tempDewpointWater temp
2016-Jul-27 14:33N 40°46' W 074°00'9 8.5
2016-Jul-27 13:33N 40°39' W 074°06'  
2016-Jul-25 06:16N 40°32' W 074°15'0 0.0
2016-Jul-25 05:25N 40°32' W 074°15'  
2016-Jul-20 16:06N 40°30' W 074°08'3 5.2
2016-Jul-20 15:33N 40°30' W 074°05'1 0.6
2016-Jul-20 14:32N 40°30' W 074°05'1 1.0
2016-Jul-20 13:33N 40°30' W 074°07'7 0.1
2016-Jul-18 12:32N 40°32' W 074°15'  

Dump ship's entire track history